Vancouver, WA
on Wednesday, February 20, 2013

Wednesday
Previous Day Next Day
Daily Summary
 ActualAverageRecord
Temperature
Mean Temperature °F 44°F  
Max Temperature 48°F 53°F 62°F (1941)
Min Temperature 29°F 35°F 19°F (2006)
Degree Days
Heating Degree Days 26    
Month to date heating degree days 442  
Since 1 July heating degree days 2865  
Cooling Degree Days 0    
Month to date cooling degree days 0  
Year to date cooling degree days 0  
Moisture
Dew Point 35°F   
Average Humidity 79    
Maximum Humidity 96    
Minimum Humidity 61    
Precipitation
Precipitation 0.03 in 0.12 in 1.57 in (1982)
Month to date precipitation 0.33 2.94  
Year to date precipitation 3.73 8.44  
Snow
Snow 0.00 in in in ()
Month to date snowfall 0.0  
Snow Depth 0.00 in   
Wind
Wind Speed 2 mph   
Max Wind Speed 10 mph   
Max Gust Speed 16 mph   
Visibility 10 miles   
Events Rain   

Key: T is trace of precipitation, MM is missing value
Source: NWS Daily Summary
Time(PST)TemperatureDew PointHumidity Pressure Visibility Wind DirectionWind SpeedGust SpeedPrecipitationEvents Conditions
12:53 AM 32.0°F 28.9°F 88% 30.02 in 10.0 miles Calm Calm - N/A   Clear
1:53 AM 30.9°F 28.9°F 92% 30.04 in 10.0 miles Calm Calm - N/A   Clear
2:53 AM 32.0°F 28.9°F 88% 30.06 in 10.0 miles Calm Calm - N/A   Overcast
4:23 AM 35.6°F 32.0°F 87% 30.07 in 10.0 miles Calm Calm - N/A   Overcast
4:35 AM 37.4°F 33.8°F 87% 30.07 in 10.0 miles Calm Calm - N/A   Overcast
4:53 AM 37.0°F 34.0°F 89% 30.07 in 10.0 miles Calm Calm - N/A   Overcast
5:05 AM 35.6°F 33.8°F 93% 30.08 in 10.0 miles Calm Calm - N/A   Overcast
5:43 AM 37.4°F 33.8°F 87% 30.08 in 10.0 miles Calm Calm - N/A   Overcast
5:53 AM 36.0°F 33.1°F 89% 30.08 in 10.0 miles Calm Calm - N/A   Overcast
6:53 AM 36.0°F 34.0°F 93% 30.09 in 10.0 miles Calm Calm - N/A   Overcast
7:53 AM 37.9°F 35.1°F 89% 30.09 in 10.0 miles Calm Calm - N/A   Overcast
8:53 AM 39.9°F 36.0°F 86% 30.09 in 10.0 miles Calm Calm - N/A   Overcast
9:53 AM 41.0°F 37.0°F 86% 30.10 in 10.0 miles Calm Calm - 0.00 in   Overcast
10:53 AM 44.1°F 37.0°F 76% 30.10 in 10.0 miles Calm Calm - N/A   Overcast
11:04 AM 42.8°F 37.4°F 81% 30.10 in 10.0 miles West 3.5 mph - N/A   Overcast
11:22 AM 44.6°F 37.4°F 76% 30.10 in 10.0 miles Calm Calm - N/A   Overcast
11:53 AM 45.0°F 37.0°F 74% 30.09 in 10.0 miles Calm Calm - N/A   Mostly Cloudy
12:27 PM 46.4°F 35.6°F 66% 30.08 in 10.0 miles SSE 3.5 mph - N/A   Mostly Cloudy
12:38 PM 46.4°F 35.6°F 66% 30.07 in 10.0 miles South 5.8 mph - N/A   Mostly Cloudy
12:53 PM 48.0°F 35.1°F 61% 30.06 in 10.0 miles South 4.6 mph - N/A   Mostly Cloudy
1:53 PM 46.9°F 36.0°F 66% 30.04 in 10.0 miles Variable 4.6 mph - N/A   Overcast
2:53 PM 48.0°F 36.0°F 63% 30.02 in 10.0 miles SSW 6.9 mph - 0.00 in Rain Light Rain
3:53 PM 45.0°F 37.0°F 74% 30.03 in 6.0 miles SW 8.1 mph - 0.01 in Rain Light Rain
4:09 PM 44.6°F 37.4°F 76% 30.02 in 9.0 miles SW 8.1 mph 16.1 mph 0.02 in Rain Light Rain
4:22 PM 44.6°F 37.4°F 76% 30.02 in 10.0 miles Calm Calm - 0.02 in Rain Light Rain
4:53 PM 44.1°F 37.9°F 79% 30.02 in 10.0 miles Calm Calm - 0.02 in   Overcast
5:53 PM 44.1°F 37.9°F 79% 30.02 in 10.0 miles South 4.6 mph - 0.00 in Rain Light Rain
6:53 PM 43.0°F 37.9°F 82% 30.04 in 10.0 miles SE 5.8 mph - 0.00 in   Overcast
7:53 PM 43.0°F 37.9°F 82% 30.05 in 10.0 miles SE 5.8 mph - N/A   Mostly Cloudy
8:53 PM 42.1°F 37.9°F 85% 30.06 in 10.0 miles SSE 3.5 mph - N/A   Mostly Cloudy
9:53 PM 42.1°F 37.0°F 82% 30.06 in 10.0 miles Calm Calm - N/A   Overcast
10:53 PM 42.1°F 36.0°F 79% 30.08 in 10.0 miles South 3.5 mph - N/A   Overcast
11:53 PM 42.1°F 36.0°F 79% 30.09 in 10.0 miles SSE 3.5 mph - 0.00 in   Overcast
Moon Phase
Feb. 20 Feb. 25 Mar. 04 Mar. 11 Mar. 19
Sunrise:07:03 AM (PST) Moon Rise:01:02 PM (PST)2/20
Sunset:05:45 PM (PST) Moon Set:03:37 AM (PST)2/20

Copyright © 2014 The Weather Underground, Inc.